Location: Owatonna
(44.0840°N, 93.2260°W)
Time: 04:56:48
(UTC-06:00)

Daily predictions for brighter satellites

Satellite Brightness Start Highest point End
(mag) Time Altitude Azimuth Time Altitude Azimuth Time Altitude Azimuth
BREEZE-M DEB (TANK) 4.2 04:21:43 54° NE 04:21:43 54° NE 04:24:38 10° ENE
Lacrosse 5 3.7 04:24:30 27° ESE 04:24:30 27° ESE 04:26:51 10° ESE
H-2A R/B 4.2 04:34:09 41° SSW 04:36:56 48° SSE 05:19:20 10° ESE
USA 234 4.1 04:32:39 10° NE 04:37:25 37° N 04:37:25 37° N
Cosmos 2263 Rocket 4.0 04:47:08 21° N 04:47:08 21° N 04:48:55 10° NNE
COSMOS 2455 2.8 04:56:09 74° NNE 04:56:09 74° NNE 05:01:39 10° NNE
ATLAS 3B R/B 4.4 04:57:09 17° N 04:57:09 17° N 05:00:40 10° NNE
Cosmos 1400 Rocket 4.2 05:01:14 37° ESE 05:01:14 37° ESE 05:04:10 10° SSE
CENTAUR R/B 3.3 05:03:14 38° NNW 05:03:14 38° NNW 05:08:46 10° NNE
COSMO-SKYMED 1 3.4 04:59:04 10° SSE 05:03:09 50° ENE 05:03:09 50° ENE
Cosmos 1190 Rocket 4.2 05:10:07 61° NNE 05:10:07 61° NNE 05:14:25 10° NNE
CZ-4C R/B 3.3 05:07:47 31° NNW 05:11:25 61° NE 05:19:15 10° SE
Nadezhda 1 Rocket 4.1 05:14:11 56° SW 05:14:11 56° SW 05:19:35 10° S
Cosmos 1844 Rocket 2.8 05:19:21 10° SSW 05:24:54 74° ESE 05:30:29 10° NNE
IDEFIX/ARIANE 42P 2.9 05:21:00 10° NNE 05:26:16 67° ESE 05:31:30 10° S
Meteor 2-13 Rocket 4.4 05:21:16 10° S 05:27:24 86° E 05:33:33 10° N
Cosmos 614 Rocket 4.2 05:26:45 10° S 05:31:49 68° ESE 05:36:53 10° NNE
Cosmos 1844 4.1 05:26:45 10° SSW 05:32:27 66° ESE 05:38:06 10° NNE
SKYMED 3 4.4 05:28:53 10° S 05:33:13 79° WSW 05:33:31 74° WNW
Meteor 1-21 Rocket 4.2 05:31:30 20° NNW 05:35:34 69° W 05:41:16 10° S
Cosmos 371 Rocket 4.2 05:34:57 15° N 05:38:50 49° ENE 05:43:33 10° SE
Cosmos 2082 Rocket 4.2 05:38:13 10° N 05:42:44 24° NE 05:47:12 10° ESE
COSMOS 2406 3.1 05:41:20 28° NNW 05:44:25 80° WSW 05:50:04 10° SSE
CZ-2C R/B 2.5 05:41:15 10° NNE 05:45:50 71° ESE 05:50:28 10° S
Cosmos 2181 Rocket 3.9 05:42:08 10° N 05:48:27 76° W 05:54:37 10° S
SL-14 R/B 3.0 05:48:05 39° NNW 05:49:27 83° W 05:53:17 10° S
Abrixas rocket 3.1 05:49:47 38° NNE 05:49:47 38° NNE 05:52:43 10° ENE
SKYMED 2 3.7 05:47:06 10° S 05:51:19 49° W 05:51:46 47° WNW
Cosmos 1408 Rocket 4.3 05:48:19 10° N 05:52:36 52° ENE 05:56:53 10° SSE
Cosmos 407 Rocket 3.9 05:54:35 37° WNW 05:54:57 37° WNW 05:59:50 10° N
Centaur D-1A AC-31 4.0 05:52:29 10° SSW 05:56:02 18° SSE 06:03:20 10° ESE
Cosmos-2242 3.6 05:52:19 10° S 05:56:34 58° E 06:00:49 10° NNE
Cosmos 1484 Rocket 4.5 05:53:38 10° NNE 05:57:03 33° E 06:00:27 10° SSE
Cosmos 676 Rocket 4.0 05:53:53 11° SW 05:58:39 53° WNW 06:03:45 10° NNE
ISS -1.3 06:03:14 11° SSW 06:03:14 11° SSW 06:03:37 10° SSW
Radarsat Rocket 4.1 05:55:22 10° NNE 06:02:19 79° WNW 06:08:27 10° SSW
Cosmos 1315 Rocket 2.6 06:00:18 21° NNW 06:02:49 71° W 06:06:46 10° S
Lacrosse 5 2.7 06:03:43 28° WSW 06:04:39 30° SW 06:09:02 10° S
NOAA 6 4.2 05:59:58 10° N 06:04:58 48° WNW 06:09:56 10° SW
DELTA 2 R/B (1) 4.1 06:02:13 26° WSW 06:05:04 49° S 06:10:26 10° ESE
Cosmos 1850 Rocket 4.2 06:04:12 10° SSW 06:09:25 77° ESE 06:14:44 10° NNE
Feng Yun 1-1 Rocket 4.3 06:04:59 10° N 06:10:13 48° WNW 06:15:21 10° SW
Cosmos 1140 Rocket 3.5 06:05:37 10° SW 06:10:36 53° WNW 06:15:39 10° NNE
Cosmos 1954 Rocket 4.1 06:05:55 10° SW 06:10:55 49° WNW 06:15:58 10° N
SJ-12 3.9 06:07:20 10° NNE 06:11:29 90° W 06:15:36 10° SSW
Cosmos 1626 2.2 06:09:16 10° N 06:13:01 81° E 06:16:44 10° S
PAYLOAD A 4.1 06:08:37 10° N 06:13:20 45° WNW 06:17:53 10° SW
EO 1 Del DPAF 3.8 06:12:25 10° SSW 06:15:55 35° W 06:17:07 28° WNW
ATLAS CENTAUR R/B 2.2 06:14:03 14° NNW 06:17:16 49° NE 06:21:25 10° SE
Cosmos 1833 Rocket 3.7 06:14:55 10° NNW 06:20:19 44° ENE 06:25:42 10° SE
USA 234 4.4 06:15:13 10° NE 06:20:37 28° N 06:24:46 15° NW
SL-27 R/B 3.6 06:19:54 10° N 06:23:25 45° ENE 06:26:56 10° SE
Cosmos 1076 Rocket 4.2 06:21:38 16° NW 06:24:28 33° W 06:28:19 10° SSW
Cosmos 2151 3.7 06:22:26 10° N 06:26:41 55° E 06:30:54 10° SSE
Okean-O 3.4 06:22:58 10° N 06:26:51 30° WNW 06:30:42 10° SW
Okean 3 Rocket 4.3 06:24:54 15° NW 06:27:51 30° W 06:31:41 10° SSW
Cosmos 2327 Rocket 4.4 06:21:45 10° S 06:27:59 86° W 06:34:10 10° N
Cosmos 2263 Rocket 4.0 06:28:51 11° NW 06:28:51 11° NW 06:30:26 10° NNW
Cosmos 468 Rocket 4.4 06:23:47 10° NNW 06:28:57 66° ENE 06:34:08 10° SSE
Timation 1 Rocket 4.3 06:24:56 10° SW 06:30:53 65° WNW 06:36:53 10° NNE
Cosmos 2154 Rocket 4.5 06:25:03 10° S 06:31:08 65° E 06:37:18 10° NNE
Cosmos 332 Rocket 4.0 06:27:05 11° NNW 06:31:37 49° WSW 06:36:18 10° S
Cosmos 1570 Rocket 3.9 06:26:50 10° NNW 06:32:03 71° WSW 06:37:14 10° S
Cosmos 2058 3.3 06:28:15 10° N 06:32:28 69° E 06:36:39 10° SSE
Cosmos 1766 Rocket 3.8 06:30:47 10° NNW 06:34:57 45° W 06:39:09 10° SSW
Cosmos 1328 4.3 06:33:18 10° NNW 06:37:00 36° W 06:40:40 10° SSW
USA 229 DEB 4.2 06:31:34 10° SSW 06:38:12 65° ESE 06:45:03 10° NE
USA 229 4.2 06:31:40 10° SSW 06:38:18 65° ESE 06:45:09 10° NE
COSMO-SKYMED 1 4.1 06:37:00 10° SW 06:39:42 16° W 06:40:22 16° W
SJ-7 4.4 06:35:44 10° N 06:40:01 77° WNW 06:44:14 10° SSW
ALOS 4.5 06:38:15 10° NE 06:42:21 29° E 06:46:25 10° SSE
COSMOS 2455 4.1 06:39:22 15° WNW 06:42:22 21° NW 06:46:50 10° N
Cosmos 1174 4.3 06:38:20 10° NNW 06:42:40 55° NE 06:46:10 10° SE
Shenzhou-11 Module 2.7 06:40:37 11° WSW 06:43:27 49° SSE 06:46:23 10° E
Tiangong 2 3.3 06:41:05 10° SSW 06:43:44 24° SSE 06:46:25 10° E
Cosmos 304 Rocket 4.1 06:39:30 10° NNW 06:44:19 70° ENE 06:49:05 10° SSE
Cosmos 2278 Rocket 2.2 06:41:00 10° SSW 06:46:38 70° WNW 06:52:19 10° NNE
Cosmos 2184 Rocket 4.2 06:45:11 10° SSW 06:51:14 52° WNW 06:57:23 10° N
YAOGAN 1 3.4 06:48:20 10° NNE 06:52:36 55° E 06:56:50 10° S
Cosmos 1763 Rocket 3.9 06:48:09 10° NNW 06:53:13 65° ENE 06:58:16 10° SSE
CENTAUR R/B 4.3 06:50:26 10° NW 06:54:54 18° NNW 06:59:51 10° NNE
SeaSat 1 3.7 06:50:17 10° NE 06:55:03 47° ESE 06:59:46 10° S
Cosmos 1842 Rocket 3.6 06:53:05 10° SSW 06:57:33 78° W 07:02:04 10° N
CORIOLIS 4.2 06:53:06 10° NNE 06:58:32 90° SSE 07:03:56 10° SSW
CZ-4C R/B 3.6 06:53:19 10° NW 06:59:55 37° WSW 07:07:03 10° S
Cosmos 1741 Rocket 4.4 06:55:25 10° SW 07:00:22 42° WNW 07:05:22 10° N
CZ-4 R/B 1.4 06:56:49 10° N 07:00:59 81° WNW 07:05:02 10° SSW
CSL-04 Rocket 3.6 06:57:27 10° N 07:02:50 68° WNW 07:08:06 10° SSW
IDEFIX/ARIANE 42P 3.9 07:01:47 10° NNW 07:05:20 19° WNW 07:08:52 10° WSW
Ariane Rocket 3.0 07:03:21 10° N 07:08:26 68° WNW 07:13:30 10° SSW
Cosmos 1844 Rocket 3.9 07:05:21 10° W 07:09:24 20° NW 07:13:28 10° N
Nadezhda 3 Rocket 4.1 07:05:01 10° NNW 07:11:17 63° W 07:17:29 10° S
Meteor 2-15 4.4 07:05:14 10° NNW 07:11:18 77° W 07:17:20 10° S
Cosmos 1703 4.1 07:09:07 10° NNW 07:12:38 30° W 07:16:06 10° SSW
Cosmos 1908 3.3 07:09:37 10° SSW 07:13:29 56° W 07:17:21 10° N
USA 81 4.1 07:08:37 10° N 07:13:53 77° W 07:19:09 10° S
AQUARIUS 4.5 07:11:22 10° N 07:15:39 44° WNW 07:19:55 10° SW
